Cozumel, Mexico

7:02 AM EST on December 13, 2017 (GMT -0500)
Cozumel

Weather History for MMCZ - July, 2013

Change the Weather History Date:

Tuesday, July 2, 2013

  Actual Average Record
Temperature  
Mean Temperature 76 °F -  
Max Temperature 84 °F 88 °F 91 °F (1996)
Min Temperature 69 °F 76 °F 69 °F (2013)
Cooling Degree Days 12    
Growing Degree Days 26 (Base 50)    
Moisture  
Dew Point 73 °F    
Average Humidity 91    
Maximum Humidity 100    
Minimum Humidity 74    
Precipitation  
Precipitation 0.05 in - - ()
Sea Level Pressure  
Sea Level Pressure 29.94 in    
Wind  
Wind Speed 2 mph ()    
Max Wind Speed 12 mph    
Max Gust Speed -    
Visibility 7.1 miles    
Events      
Averages and records for this station are not official NWS values.
T = Trace of Precipitation, MM = Missing Value Source: Averaged Metar Reports

Daily Weather History Graph

Daily Weather History Graph

Search for Another Location

Airport or City:

Trip Planner

Search our weather history database for the weather conditions in past years. The results will help you decide how hot, cold, wet, or windy it might be!

Date:

Astronomy

Jul. 02, 2013 Rise Set
Actual Time 6:11 AM CDT 7:32 PM CDT
Civil Twilight 5:46 AM CDT 7:56 PM CDT
Nautical Twilight 5:17 AM CDT 8:26 PM CDT
Astronomical Twilight 4:47 AM CDT 8:56 PM CDT
Moon 1:53 AM CDT (7/2) 3:02 PM CDT (7/2)
Length of Visible Light 14h 10m
Length of Day
13h 21m
Waning Crescent, 26% of the Moon is Illuminated
Jul 2
Waning Crescent
Jul 8
New
Jul 15
First Quarter
Jul 22
Full
Jul 29
Last Quarter

Hourly Weather History & Observations

Time (CDT) Temp. Heat Index Dew Point Humidity Pressure Visibility Wind Dir Wind Speed Gust Speed Precip Events Conditions
12:46 AM 71.6 °F - 69.8 °F 94% 29.92 in 7.0 mi Calm Calm - N/A   Mostly Cloudy
1:40 AM 69.8 °F - 68.0 °F 94% 29.92 in 7.0 mi Calm Calm - N/A   Mostly Cloudy
2:40 AM 71.6 °F - 69.8 °F 94% 29.91 in 7.0 mi Calm Calm - N/A   Mostly Cloudy
3:41 AM 71.6 °F - 69.8 °F 94% 29.93 in 7.0 mi Calm Calm - N/A   Mostly Cloudy
4:40 AM 71.6 °F - 69.8 °F 94% 29.89 in 7.0 mi Calm Calm - N/A   Mostly Cloudy
5:41 AM 69.8 °F - 68.0 °F 94% 29.91 in 7.0 mi Calm Calm - N/A   Mostly Cloudy
6:40 AM 69.8 °F - 68.0 °F 94% 29.89 in 7.0 mi Calm Calm - N/A   Mostly Cloudy
7:43 AM 75.2 °F - 73.4 °F 94% 29.93 in 7.0 mi SE 4.6 mph - N/A   Mostly Cloudy
8:41 AM 78.8 °F - 75.2 °F 89% 29.95 in 7.0 mi SE 3.5 mph - N/A   Mostly Cloudy
9:48 AM 78.8 °F - 75.2 °F 89% 29.98 in 7.0 mi SSE 3.5 mph - N/A   Mostly Cloudy
10:48 AM 82.4 °F 88.2 °F 73.4 °F 74% 29.95 in 7.0 mi SE 8.1 mph - N/A   Mostly Cloudy
11:41 AM 84.2 °F 92.3 °F 75.2 °F 74% 29.95 in 8.0 mi SE 6.9 mph - N/A   Mostly Cloudy
12:45 PM 84.2 °F 92.3 °F 75.2 °F 74% 29.93 in 8.0 mi SE 8.1 mph - N/A   Mostly Cloudy
1:43 PM 78.8 °F - 73.4 °F 83% 29.94 in 7.0 mi SSE 4.6 mph - N/A   Mostly Cloudy
2:42 PM 75.2 °F - 73.4 °F 94% 29.93 in 7.0 mi ENE 4.6 mph - N/A   Mostly Cloudy
3:45 PM 78.8 °F - 75.2 °F 89% 29.95 in 7.0 mi NE 4.6 mph - N/A   Mostly Cloudy
4:47 PM 78.8 °F - 75.2 °F 89% 29.92 in 7.0 mi ENE 4.6 mph - N/A   Mostly Cloudy
5:43 PM 78.8 °F - 75.2 °F 89% 29.91 in 7.0 mi ENE 5.8 mph - N/A   Mostly Cloudy
6:51 PM 77.0 °F - 73.4 °F 89% 29.91 in 7.0 mi ESE 11.5 mph - N/A   Mostly Cloudy
7:49 PM 73.4 °F - 71.6 °F 94% 29.94 in 7.0 mi East 5.8 mph - N/A   Mostly Cloudy
8:48 PM 73.4 °F - 73.4 °F 100% 29.96 in 7.0 mi ESE 3.5 mph - N/A   Mostly Cloudy
9:40 PM 75.2 °F - 73.4 °F 94% 29.99 in 7.0 mi SE 4.6 mph - N/A   Mostly Cloudy
10:47 PM 73.4 °F - 73.4 °F 100% 29.97 in 7.0 mi Calm Calm - N/A   Scattered Clouds
11:43 PM 73.4 °F - 73.4 °F 100% 29.99 in 7.0 mi Calm Calm - N/A   Scattered Clouds